Regional Weather Roundup
Issued by NWS Midland/Odessa, TX

Skip options and go directly to product.
Home | Oldest Version | Next Version | Current Version | All | Text Only | Save Text | Print | Product List | Glossary On

Skip product version selection by date and time.   
749
ASUS44 KMAF 070110
RWRMAF
MIDLAND AREA WEATHER ROUNDUP
NATIONAL WEATHER SERVICE MIDLAND TX
700 PM CST TUE DEC 06 2016

...IN SOUTHWEST TEXAS AND SOUTHEAST NEW MEXICO...

CITY           SKY/WX    TMP DP  RH WIND       PRES   REMARKS
ALPINE         CLEAR     43  30  61 E5        30.05S
ANDREWS        FAIR      35  30  82 E3        30.01R
ARTESIA        CLEAR     39  25  56 SE8       29.95F WCI  34
BIG SPRING     CLOUDY    40  32  72 E3        30.03S
CARLSBAD       CLOUDY    40  26  57 S8        29.95S WCI  34
DRYDEN           N/A     48  38  68 N7        29.99R
FORT STOCKTON  CLOUDY    43  34  70 E3        29.99S
GUAD PASS      NOT AVBL
HOBBS          CLEAR     36  18  48 NE5       30.00R WCI  32
MARFA          CLEAR     50  31  48 S6        30.00R
MIDLAND AIRPK  PTCLDY    41  31  67 E5        30.01S WCI  38
MIDLAND INTL   PTCLDY    41  30  65 E6        30.00S WCI  37
ODESSA         PTCLDY    40  31  70 E6        30.00S WCI  36
PECOS          PTCLDY    44  31  60 SE6       29.99S
PRESIDIO       FAIR      59  44  57 CALM      29.91S
SEMINOLE       CLOUDY    35  28  75 CALM      30.01S
SNYDER         CLOUDY    39  28  63 E3        30.03R
WINK           CLOUDY    44  33  65 SE7       29.97S
$$
...OTHER STATIONS IN TEXAS...

CITY           SKY/WX    TMP DP  RH WIND       PRES   REMARKS
ABILENE        PTCLDY    42  31  64 NE3       30.04F
AMARILLO       CLEAR     27  10  49 SE7       30.01S WCI  19
AUSTIN         MOCLDY    50  45  83 N7        30.05R
BROWNSVILLE    CLEAR     66  63  90 SE5       29.94R
CORPUS CHRISTI PTCLDY    67  57  70 N15       29.95R
DALLAS FTW     CLOUDY    46  39  76 NE5       30.04S
DEL RIO        CLEAR     54  43  66 NE7       30.00R
EL PASO        PTCLDY    55  31  39 E3        29.89S
HOUSTON INT    MOCLDY    58  51  78 N7        30.01R
LUBBOCK        MOCLDY    35  22  58 SE7       30.00S WCI  29
SAN ANGELO     CLOUDY    44  37  76 E7        30.05R
SAN ANTONIO    MOCLDY    53  43  68 NE8       30.04R
WACO           CLOUDY    47  43  86 N10       30.07R
WICHITA FALLS  NOT AVBL
$$
...OTHER LOCATIONS IN NEW MEXICO...

CITY           SKY/WX    TMP DP  RH WIND       PRES   REMARKS
ALAMAGORDO     NOT AVBL
ALBUQUERQUE    NOT AVBL
CANNON AFB     CLEAR     29  15  55 SE9       29.94F WCI  20
CLOVIS         CLEAR     28  12  50 S9        29.95F WCI  20
HOLLOMAN AFB   CLEAR     51  30  44 S10       29.93S
ROSWELL        CLOUDY    36  18  48 SW7       29.95S WCI  30
RUIDOSO        CLEAR     41  27  56 SW20G30   29.93S WCI  32
SANTA FE       CLOUDY    33  10  38 SE15      29.83R WCI  23
TRUTH OR CONSE PTCLDY    51  18  27 SW9       29.87R
TUCUMCARI      CLEAR     32  11  41 SE10      29.92F WCI  24
$$

  • National Weather Service
  • Southern Region Headquarters
  • 819 Taylor Street, Room 10A06
  • Fort Worth, TX 76102
  • Page Author: NWS Fort Worth
  • Web Master: SR-SRH.Webmaster@noaa.gov
  •  
  • Page last modified: 30-Sep-2016 6:36 PM UTC
USA.gov is the U.S. government's official web portal to all federal, state and local government web resources and services.